IRIDIUM 160 (43569 NORAD) Tracking and Keplerian Element Data

This shows tracking and keplerian element data for the satellite.

Feedback or suggestion? Click here.




ElementValue
Catalog43569
NameIRIDIUM 160
Epoch Orbit430
Epoch Day236.17909981
Epoch Year2018
RAAN169.4399
Inclination86.4026
Eccentricity0.0002512
Argument of Perigee86.7981
Mean Anonmoly273.3502
Mean Motion14.34218247
Decay Rate1E-07
L11 43569U 18061A 18236.17909981 .00000010 00000-0 -34468-5 0 9999
L22 43569 86.4026 169.4399 0002512 86.7981 273.3502 14.34218247 4300

Live tracking and technical data element details for IRIDIUM 160 (NORAD 43569). IRIDIUM 160 can be tracked NOW for your location showing map with azimuth and elevation plus other details from your city location.

Track the satellite on the map from your city or location and see movement details for azimuth, elevation, latitude, longitude, range, height, and movement on the map or in text.







IsCatalogInMostPopularTable: catalog: 43569, numindb: 42
Update: records affected: 1



GetName: 43569 IRIDIUM 160

Hit Count: updated at: Tue, 20 Nov 2018 11:45:53 GMT